{"data":{"norad_id":53480,"epoch":"2026-05-25T06:00:02.000160Z","epoch_age_seconds":63728,"freshness":"FRESH","line1":"1 53480U 22099R   26145.25002315  .00139883  00000+0  40285-2 0  9990","line2":"2 53480  97.6032 268.1052 0001571  73.6146 119.2396 15.35181318  5837","mean_motion":15.35181318,"eccentricity":0.0001571,"inclination_deg":97.6032,"raan_deg":268.1052,"arg_perigee_deg":73.6146,"mean_anomaly_deg":119.2396,"bstar":0.0040285,"rev_number":583,"period_min":93.799995030945,"perigee_km":459.3076520842,"apogee_km":461.45631474879,"semimajor_km":6838.5189834165,"source":"CELESTRAK","updated_at":"2026-05-25T13:38:17.432694Z"}}